STARLINK-11578, 63014

Orbit data source: Space-Track

STARLINK-11578, 63014 is a payload satellite owned by SpaceX/Seattle (US) in LEO that was launched on Sat, 15 Feb 2025 UTC via an FALCON 9 launch vehicle from the Air Force Eastern Test Range (AFETR). Payload-class satellites include a variety of spacecraft equipped with specific instruments for various scientific and technological missions. These include communications satellites like Starlink; space stations such as the ISS; scientific satellites like the Hubble; Earth observation satellites from companies like Planet Labs, Umbra, and HawkEye 360; GPS; miniature CubeSats for education and research; and military/defense satellites.

Loading next visibility...
Identifier
63014, 2025-032K
Orbit
LEO
Country
Flag of USUS
Related business
Manufacturer
SpaceX/Seattle
Mission
Operational Commercial Communications
Bus & Motor
STARLINK V2MD, Unknown motor
Mass
960 kg wet, ~910 kg dry
Launch date (UTC)
2025-02-15 (8 months ago)
Launch vehicle
FALCON 9
Launch site
Air Force Eastern Test Range (AFETR)
Object type
Payload
Rocket body
Debris
Shape & HBR
Box + 2 Pan, 18.1 m
Radar Cross Section
36.964 m², Large (>1 m²)

Expand to show TLE details & history
Last TLE update: 1 day ago

TLE from 1 day ago
0 STARLINK-11578
1 63014U 25032K   25301.20344768  .00273470  00000-0  20612-2 0  9997
2 63014  43.0013 274.2381 0001389 257.6577 102.4135 15.70888108 41326
Epoch: 2025-10-28T04:52Z
TLE epoch observation values (Epoch: 2025-10-28T04:52:57.879Z)
Latitude
-0.00004°
Longitude
164.20259°
Altitude
356.33 km
Speed
7.697 km/s
True Right ascension
18h 16m 57s
True Declination
0° 00' 00"
Sunlit
Object was in daylight at epoch
Visualization orbit readout
Latitude
Unknown
Longitude
Unknown
Altitude
Unknown
Speed
Unknown
Apparent Right ascension
Unknown
Apparent Declination
Unknown
Sunlit
N/A
Visualization observer readout
Local Sidereal Time
05:26:52
Azimuth
Unknown
Elevation
Unknown
Doppler factor
Unknown
Orbital elements
Apogee altitude
359.275 km
Perigee altitude
357.403 km
Semi-major axis
6,736.476 km
Eccentricity
0.00014
Inclination
43.0013°
RAAN
274.2381°
Arg. of periapsis
257.6577°
True anomaly
102.42904°
Mean anomaly
102.4135°
Eccentric anomaly
102.42127°
Mean motion
3.92549 °/min
Orbital period
91.71 mins
BSTAR
0.0020612
Loading maneuver chart data...
Computing Atmospheric mass density...
Loading historical data...
Loading historical data...
Loading historical data...
Loading historical data...
Loading historical data...
Loading historical data...
Loading historical data...

Documentation

Showing up to 5 results
|